LUCH-5X (OLYMP-K 2)

Last updated on Wed Sep 09 2026 00:03:03 GMT+0000 (Coordinated Universal Time)

1 55841U 23031A 26250.53073794 .00000014 00000+0 00000+0 0 9998 2 55841 0.0148 127.5846 0000497 342.9106 129.1686 1.00271592 12762
UTC large
Height (km)
Speed (km/s)
/
Latitude / Longitude
Inclination (degrees)
Orbital Period (minutes)
Azimuth
Elevation
Range (km)
Doppler Factor

Next 0 passes for location: London (51.5072 / 0.1276)

No passes found over London.
LUCH-5X (OLYMP-K 2)